Location: Newark
(39.7092°N, 111.8314°W)
Time: 15:44:33
(UTC+00:00)

ISS - Visible Passes

Search period start: 17 February 2020 00:00
Search period end: 27 February 2020 00:00
Orbit: 416 x 422 km, 51.6° (Epoch: 17 February)

Date Brightness Start Highest point End Pass type
(mag) Time Alt. Az. Time Alt. Az. Time Alt. Az.
18 Feb -0.1 13:25:43 10° SE 13:26:09 10° SE 13:26:36 10° ESE visible
20 Feb -1.8 13:24:20 10° SSW 13:27:21 31° SE 13:30:22 10° ENE visible
21 Feb -1.0 12:37:30 10° S 12:39:51 18° SE 12:42:13 10° E visible
22 Feb -0.6 11:52:07 10° SE 11:52:25 10° SE 11:52:41 10° ESE visible
22 Feb -3.8 13:25:20 10° SW 13:28:42 83° NW 13:32:06 10° NE visible
23 Feb -3.2 12:39:45 31° SSW 12:41:05 55° SE 12:44:24 10° ENE visible
24 Feb -1.6 11:54:29 25° ESE 11:54:29 25° ESE 11:56:30 10° ENE visible
24 Feb -2.8 13:27:28 12° W 13:30:16 32° NNW 13:33:21 10° NE visible
25 Feb -3.5 12:42:02 45° WNW 12:42:30 49° NNW 12:45:48 10° NE visible
26 Feb -1.8 11:56:28 27° NE 11:56:28 27° NE 11:58:10 10° NE visible
26 Feb -1.8 13:29:38 10° WNW 13:32:00 18° NNW 13:34:22 10° NNE visible
